Delta Virtual Airport Information Service

Orlando International Airport

ICAO: KMCO Country: United States
Latitude: 28.4294 Longitude: -81.3089
Latest Arrival : DAL2601 (1A) (KMSP-KMCO) Latest Departure : JBU2668351 (KMCO-TJSJ)


WX CaptureLIVE
Data provided by noaa.gov | Fetched at 00:10:10

METAR : KMCO 120453Z 00000KT 10SM FEW020 FEW130 BKN250 23/21 A3008 RMK AO2 SLP184 T02280211 403280217

TAF : KMCO 120255Z 1203/1306 VRB03KT P6SM FEW150 BKN250 FM121400 24008KT P6SM SCT035 BKN200 FM121800 27009KT P6SM VCTS SCT045CB BKN080 TEMPO 1219/1221 3SM TSRA BKN030CB FM122300 34008KT P6SM SCT050 BKN250


Runway Data for KMCO
Data provided by openaviationdata.com

Runway ID Mag Var Hdg Length Elevation Surface ILS Freq ILS Id ILS Slope
17L -5 184° 9025 ft 96 ft Concrete 110.95 IARK 3
17R -5 184° 10027 ft 96 ft Concrete 111.75 IDIZ 3
18L -5 184° 12037 ft 96 ft Asphalt -- -- --
18R -5 184° 12037 ft 96 ft Concrete 111.9 ITFE 3
35L -5 10027 ft 96 ft Concrete 110.5 IDDO 3
35R -5 9025 ft 96 ft Concrete 111.15 ICER 3
36L -5 12037 ft 96 ft Concrete -- -- --
36R -5 12037 ft 96 ft Asphalt 110.7 IOJP 3

Orlando International Airport, United States
Use only for reference purposes



Not for navigational purposes.